This is the latest recevied weather packets stored in our database for station/object EA5JPW-10. If no packets are shown the sender has not sent any weather packets the latest 10 day(s).
| Time | Temp. | Humidity | Pressure | Rain* | Wind** | Luminosity | Snow |
|---|---|---|---|---|---|---|---|
| 1777169929 | 12.22° C | 44% | 996.3 hPa | - | - | - | - |
| 1777169029 | 12.78° C | 44% | 996.2 hPa | - | - | - | - |
| 1777168135 | 12.78° C | 44% | 996.2 hPa | - | - | - | - |
| 1777167234 | 13.33° C | 44% | 996.3 hPa | - | - | - | - |
| 1777166334 | 13.33° C | 43% | 996.3 hPa | - | - | - | - |
| 1777165434 | 14.44° C | 43% | 996.1 hPa | - | - | - | - |
| 1777164534 | 13.89° C | 44% | 996.7 hPa | - | - | - | - |
| 1777163633 | 13.33° C | 44% | 996.7 hPa | - | - | - | - |
| 1777162733 | 13.33° C | 44% | 996.9 hPa | - | - | - | - |
| 1777161833 | 13.33° C | 43% | 997 hPa | - | - | - | - |
| 1777160932 | 13.33° C | 43% | 997.1 hPa | - | - | - | - |
| 1777160031 | 13.89° C | 44% | 997.1 hPa | - | - | - | - |
| 1777159131 | 14.44° C | 43% | 997.1 hPa | - | - | - | - |
| 1777158231 | 14.44° C | 43% | 997.2 hPa | - | - | - | - |
| 1777157331 | 14.44° C | 43% | 997.2 hPa | - | - | - | - |
| 1777156430 | 13.89° C | 43% | 997.4 hPa | - | - | - | - |
| 1777155530 | 13.89° C | 43% | 997.3 hPa | - | - | - | - |
| 1777154630 | 13.89° C | 43% | 997.3 hPa | - | - | - | - |
| 1777153730 | 14.44° C | 43% | 997.4 hPa | - | - | - | - |
| 1777152830 | 13.89° C | 43% | 997.2 hPa | - | - | - | - |
| 1777151929 | 14.44° C | 43% | 997.2 hPa | - | - | - | - |
| 1777151029 | 14.44° C | 43% | 997.1 hPa | - | - | - | - |
| 1777150129 | 14.44° C | 43% | 997 hPa | - | - | - | - |
| 1777149228 | 15° C | 43% | 996.8 hPa | - | - | - | - |
| 1777148327 | 15.56° C | 43% | 996.6 hPa | - | - | - | - |
* Rain since midnight (hover to see other rain measurements)
** Current wind speed in m/s (hover to see current wind gust speed)